BREEZE-M R/B, 39128

Orbit data source: Space-Track

BREEZE-M R/B, 39128 is space debris in HEO originally from a launch on Mon, 15 Apr 2013 UTC launched from the Tyuratam Missile And Space Complex (TTMTR). Debris objects in space refer to the collection of defunct objects orbiting the Earth. Examples of debris include non-operational satellites, rocket bodies, and fragments generated from explosions, collisions, or faulty payload assembly.

Loading next visibility...
Identifier
39128, 2013-014B
Orbit
HEO
Country
Flag of CISCIS
Related business
Manufacturer
Khrunichev
Mission
Spacecraft
Bus & Motor
BRIZ, Unknown motor
Mass
~1,600 kg wet, 1,600 kg dry
Launch date (UTC)
2013-04-15 (13 years ago)
Launch vehicle
Unknown
Launch site
Tyuratam Missile And Space Complex (TTMTR)
Object type
Payload
Rocket body
Debris
Shape & HBR
Cyl, 2.0 m
Radar Cross Section
15.135 m², Large (>1 m²)

Expand to show TLE details & history
Last TLE update: 2 days ago

TLE from 2 days ago
0 BREEZE-M R/B
1 39128U 13014B   25348.06866674 -.00000093  00000-0  00000-0 0  9990
2 39128  15.5301  21.3534 4793531 176.3092 189.0739  1.90429877 88097
Epoch: 2025-12-14T01:38Z
TLE epoch observation values (Epoch: 2025-12-14T01:38:52.806Z)
Latitude
-0.00001°
Longitude
-86.36028°
Altitude
34,207.574 km
Speed
2.268 km/s
True Right ascension
01h 25m 23s
True Declination
0° 00' 00"
Sunlit
Object was in daylight at epoch
Visualization orbit readout
Latitude
Unknown
Longitude
Unknown
Altitude
Unknown
Speed
Unknown
Apparent Right ascension
Unknown
Apparent Declination
Unknown
Sunlit
N/A
Visualization observer readout
Local Sidereal Time
19:02:33
Azimuth
Unknown
Elevation
Unknown
Doppler factor
Unknown
Orbital elements
Apogee altitude
34,299.024 km
Perigee altitude
7,937.876 km
Semi-major axis
27,496.587 km
Eccentricity
0.47935
Inclination
15.5301°
RAAN
21.3534°
Arg. of periapsis
176.3092°
True anomaly
183.64331°
Mean anomaly
189.0739°
Eccentric anomaly
186.1375°
Mean motion
0.47602 °/min
Orbital period
756.27 mins
BSTAR
0
Loading maneuver chart data...
Computing Atmospheric mass density...
Loading historical data...
Loading historical data...
Loading historical data...
Loading historical data...
Loading historical data...
Loading historical data...
Loading historical data...
Other satellites on launch #14 in the year 2013 (2013-04-15 UTC)

Documentation

Showing up to 5 results
|